Winner, SD

5:55 PM CDT on August 25, 2016 (GMT -0500)
Winner

Weather History for KICR - May, 2013

Change the Weather History Date:

Tuesday, May 28, 2013

  Actual Average Record
Temperature  
Mean Temperature 65 °F 62 °F  
Max Temperature 76 °F 74 °F 88 °F (2014)
Min Temperature 54 °F 50 °F 44 °F (2008)
Degree Days  
Heating Degree Days 0 5  
Month to date heating degree days 229 229  
Since 1 July heating degree days 6631 6633  
Cooling Degree Days 0 2  
Month to date cooling degree days 37 24  
Year to date cooling degree days 39 26  
Growing Degree Days 14 (Base 50)    
Moisture  
Dew Point 56 °F    
Average Humidity 75    
Maximum Humidity 100    
Minimum Humidity 50    
Precipitation  
Precipitation 0.82 in 0.13 in 0.82 in (2013)
Month to date precipitation 5.11 3.03  
Year to date precipitation 6.57 7.66  
Sea Level Pressure  
Sea Level Pressure 29.72 in    
Wind  
Wind Speed 8 mph (WSW)    
Max Wind Speed 28 mph    
Max Gust Speed 37 mph    
Visibility 9 miles    
Events Rain , Thunderstorm    
T = Trace of Precipitation, MM = Missing Value Source: NWS Daily Summary

Daily Weather History Graph

Daily Weather History Graph

Search for Another Location

Airport or City:

Trip Planner

Search our weather history database for the weather conditions in past years. The results will help you decide how hot, cold, wet, or windy it might be!

Date:

Astronomy

May. 28, 2013 Rise Set
Actual Time 6:03 AM CDT 9:10 PM CDT
Civil Twilight 5:29 AM CDT 9:44 PM CDT
Nautical Twilight 4:45 AM CDT 10:28 PM CDT
Astronomical Twilight 3:52 AM CDT 11:22 PM CDT
Moon No Moon Rise 9:56 AM CDT (5/28)
Length of Visible Light 16h 15m
Length of Day
15h 06m
Waning Gibbous, 82% of the Moon is Illuminated
May 28
Waning Gibbous
May 31
Last Quarter
Jun 8
New
Jun 16
First Quarter
Jun 23
Full

Hourly Weather History & Observations

Time (CDT) Temp. Dew Point Humidity Pressure Visibility Wind Dir Wind Speed Gust Speed Precip Events Conditions
12:25 AM 55.4 °F 51.8 °F 88% 29.73 in 7.0 mi NE 21.9 mph 31.1 mph 0.05 in Rain Rain
12:53 AM 55.9 °F 54.0 °F 93% 29.73 in 10.0 mi NNE 11.5 mph 20.7 mph 0.07 in Rain , Thunderstorm Light Rain
1:14 AM 57.2 °F 53.6 °F 88% 29.73 in 10.0 mi NE 13.8 mph - 0.00 in   Mostly Cloudy
1:53 AM 57.0 °F 54.0 °F 89% 29.67 in 10.0 mi NE 21.9 mph 31.1 mph 0.00 in   Clear
2:53 AM 55.9 °F 54.0 °F 93% 29.70 in 10.0 mi East 8.1 mph - N/A   Clear
3:53 AM 55.0 °F 54.0 °F 96% 29.71 in 10.0 mi SSE 6.9 mph - N/A   Clear
4:53 AM 55.0 °F 53.1 °F 93% 29.71 in 10.0 mi South 8.1 mph - N/A   Clear
5:53 AM 55.0 °F 53.1 °F 93% 29.70 in 10.0 mi WSW 6.9 mph - N/A   Clear
6:53 AM 54.0 °F 53.1 °F 97% 29.72 in 10.0 mi WSW 8.1 mph - N/A   Clear
7:13 AM 55.4 °F 53.6 °F 94% 29.74 in 10.0 mi WSW 8.1 mph - N/A   Mostly Cloudy
7:53 AM 57.0 °F 54.0 °F 89% 29.72 in 10.0 mi SW 9.2 mph - N/A   Overcast
8:40 AM 59.0 °F 55.4 °F 88% 29.75 in 10.0 mi SW 10.4 mph - N/A   Scattered Clouds
8:53 AM 60.1 °F 55.9 °F 86% 29.73 in 10.0 mi SW 9.2 mph - N/A   Partly Cloudy
9:53 AM 63.0 °F 55.9 °F 78% 29.72 in 10.0 mi WSW 8.1 mph - N/A   Partly Cloudy
10:17 AM 64.4 °F 55.4 °F 73% 29.75 in 10.0 mi WSW 9.2 mph - N/A   Mostly Cloudy
10:53 AM 66.0 °F 57.0 °F 73% 29.72 in 10.0 mi West 6.9 mph - N/A   Mostly Cloudy
11:18 AM 66.2 °F 57.2 °F 73% 29.75 in 10.0 mi West 10.4 mph - N/A   Scattered Clouds
11:53 AM 68.0 °F 55.9 °F 65% 29.72 in 10.0 mi WNW 8.1 mph - N/A   Partly Cloudy
12:53 PM 70.0 °F 55.9 °F 61% 29.73 in 10.0 mi NNW 8.1 mph - N/A   Clear
1:53 PM 72.0 °F 55.9 °F 57% 29.71 in 10.0 mi Variable 3.5 mph - N/A   Clear
2:53 PM 73.0 °F 55.0 °F 53% 29.70 in 10.0 mi Calm Calm - N/A   Clear
3:53 PM 75.0 °F 55.0 °F 50% 29.69 in 10.0 mi Calm Calm - N/A   Clear
4:53 PM 75.0 °F 55.9 °F 51% 29.69 in 10.0 mi Variable 3.5 mph - N/A   Clear
5:53 PM 75.0 °F 57.0 °F 53% 29.66 in 10.0 mi SE 9.2 mph - N/A   Clear
6:53 PM 72.0 °F 57.9 °F 61% 29.65 in 10.0 mi East 8.1 mph - N/A   Clear
7:53 PM 70.0 °F 60.1 °F 71% 29.64 in 10.0 mi ENE 10.4 mph - N/A   Clear
8:53 PM 68.0 °F 57.9 °F 70% 29.64 in 10.0 mi East 10.4 mph - N/A   Clear
9:53 PM 64.9 °F 60.1 °F 84% 29.68 in 10.0 mi ESE 4.6 mph - N/A   Clear
10:53 PM 64.9 °F 61.0 °F 87% 29.69 in 10.0 mi SE 9.2 mph - N/A   Scattered Clouds
11:25 PM 62.6 °F 55.4 °F 77% 29.76 in 10.0 mi West 19.6 mph 25.3 mph N/A Thunderstorm Overcast
11:39 PM 60.8 °F 57.2 °F 88% 29.81 in 2.0 mi West 25.3 mph 36.8 mph 0.15 in Rain , Thunderstorm Heavy Thunderstorms and Rain
11:44 PM 57.2 °F 55.4 °F 94% 29.83 in 0.8 mi West 17.3 mph 36.8 mph 0.39 in Rain , Thunderstorm Heavy Thunderstorms and Rain
11:50 PM 57.2 °F 55.4 °F 94% 29.82 in 1.0 mi West 8.1 mph 23.0 mph 0.52 in Rain , Thunderstorm Heavy Thunderstorms and Rain
11:51 PM 57.0 °F 55.0 °F 93% 29.80 in 1.0 mi West 8.1 mph 23.0 mph 0.53 in Rain , Thunderstorm Heavy Thunderstorms and Rain
11:55 PM 57.2 °F 55.4 °F 94% 29.83 in 2.0 mi WSW 6.9 mph - 0.03 in Rain , Thunderstorm Heavy Thunderstorms and Rain